862  
ASHW40 PHFO 221843  
RWRHI  
 
WEATHER ROUNDUP FOR HAWAII  
NATIONAL WEATHER SERVICE HONOLULU HI  
800 AM HST FRI SEP 22 2017  
 
THIS IS AN AUTOMATED REPORT THAT HAS NOT BEEN QUALITY CONTROLLED.  
 
NOTE..."FAIR" INDICATES FEW OR NO CLOUDS BELOW 12,000 FEET WITH NO  
SIGNIFICANT WEATHER AND/OR S TO VISIBILITY
.  
 
* - THESE SITES REPORT LIMITED FIELDS  
# - BUOY DATA PROVIDED BY PACIFIC ISLANDS OCEAN OBSERVING SYSTEM.  
 
HIZ001>004-221900-  
KAUAI-NIIHAU-  
 
CITY SKY/WX TMP DP RH WIND PRES REMARKS
 
LIHUE APT MOSUNNY 82 69 64 NE13 30.05R  
PORT ALLEN* N/A 81 N/A N/A E9 N/A  
POIPU* N/A 77 N/A N/A NE6G12 N/A  
PRINCEVILLE* N/A 73 N/A N/A S2 N/A  
KOKOLE POINT* NOT AVBL  
MOLOAA DAIRY* N/A 81 70 69 E3G10 N/A  
WAIMEA HTS* N/A 82 64 54 E3 N/A  
PUU OPAE* N/A 73 64 73 W3 N/A  
PUU LUA* NOT AVBL  
MAKAHA RIDGE* N/A 75 66 73 SW1 N/A  

 
 
HIZ005>011-221900-  
OAHU-  
 
CITY SKY/WX TMP DP RH WIND PRES REMARKS
 
HONOLULU MOSUNNY 81 66 60 NE12 30.01R  
KALAELOA MOSUNNY 82 66 57 NE8 30.03R  
KANEOHE MCB MOSUNNY 82 69 64 E10G16 30.00  
WHEELER FIELD FAIR 73 66 78 CALM 30.03R  
BELLOWS* N/A N/A N/A N/A NE16 N/A  
KAHUKU* N/A N/A N/A N/A E8G16 N/A  
WHEELER* N/A N/A N/A N/A NE2 N/A  
WAIANAE HARBOR N/A N/A N/A N/A NE7G15 N/A  
DILLINGHAM* N/A 90 77 66 SW3 N/A HX 102  
KAHUKU TRN* N/A 73 63 68 W8G18 N/A  
KAWAILOA* N/A 73 66 78 E3G13 N/A  
KII* N/A 81 70 69 E14 N/A  
MAKUA RANGE* N/A N/A N/A N/A SW2G9 N/A  
OAHU FOREST NW N/A 73 64 73 E9G24 N/A  
SCHOFIELD BRK* N/A 66 55 68 MISG N/A  
SCHOFIELD S* NOT AVBL  
WAIANAE VLY* N/A 81 64 57 NE3G18 N/A  
KUAOKALA* N/A 75 66 73 E12G18 N/A  
HONOULIUULI* NOT AVBL  
MOKUOLOE IS* NOT AVBL  
PALEHUA* N/A 72 63 73 NE10G21 N/A  
WAIAWA PHB* NOT AVBL  

 
 
HIZ012>013-221900-  
MOLOKAI-  
 
CITY SKY/WX TMP DP RH WIND PRES REMARKS
 
MOLOKAI AIRPT SUNNY 79 68 69 NE12G17 30.03R  
KALAUPAPA NOT AVBL  
MAKAPULAPAI* N/A 81 70 69 E16G22 N/A  
MOLOKAI 1* N/A 64 54 68 NE3G17 N/A  
PUU ALII* N/A 60 59 95 N3G12 N/A  

 
 
HIZ016-221900-  
KAHOOLAWE-  
 
CITY SKY/WX TMP DP RH WIND PRES REMARKS
 
KAHOOLAWE* NOT AVBL  
HAKIOAWA* N/A 78 67 69 MISG 30.43R  
HONOKANAIA* N/A 77 66 68 VRB6G13 29.94R  
KANELOA* N/A 75 66 73 N6G14 30.06R  
KEALIALALO* NOT AVBL  
LUA MAKIKA* NOT AVBL  

 
 
HIZ014>015-221900-  
LANAI-  
 
CITY SKY/WX TMP DP RH WIND PRES REMARKS
 
LANAI CITY FAIR 74 66 76 NE21G31 30.04F  
LANAI 1* N/A 75 66 73 NE21G30 N/A  

 
 
HIZ017>028-221900-  
MAUI-  
 
CITY SKY/WX TMP DP RH WIND PRES REMARKS
 
KAHULUI MOSUNNY 81 68 64 NE15 30.01S  
KAPALUA-W MAUI MOSUNNY 77 64 65 NE16G24 30.01  
HANA AIRPORT NOT AVBL  
HANA* NOT AVBL  
HALEAKALA SUMM N/A 52 16 24 NW3G24 N/A  
MAALAEA BAY* N/A 81 N/A N/A N20G28 N/A  
HALEAKALA* NOT AVBL  
KAUPO GAP* NOT AVBL  
KULA 1* N/A 48 32 53 E3 N/A  

 
 
HIZ023>026-221900-  
BIG ISLAND OF HAWAII COAST AND LOWER SLOPES-  
 
CITY SKY/WX TMP DP RH WIND PRES REMARKS
 
KAILUA KONA SUNNY 81 68 64 SE7 29.95R  
HILO MOSUNNY 73 66 78 SW6 30.03R  
HONOKAA* N/A 77 N/A N/A VRB1 N/A  
KAWAIHAE MWT* N/A 86 N/A N/A S1 N/A  
KAWAIHAE* N/A 81 N/A N/A W5 29.96S  
SOUTH POINT* N/A 77 N/A N/A VRB13G22 N/A  
UPOLU AIRPORT* NOT AVBL  
KAMUELA* NOT AVBL  
HAKALAU* N/A 56 51 85 N3 N/A  
KALOKO-HONOKO* N/A 82 72 69 E6 29.96R  
PALI 2* N/A 72 55 56 S16G26 N/A  
KEALAKOMO* N/A 81 64 57 N16G26 N/A  
KAUPULEHU* N/A 81 64 57 W6 N/A  
KAPAPALA* N/A 74 61 63 SW2 N/A  
LOWER KAHUKU* N/A N/A N/A N/A VRB2G8 N/A  
PUHE CS* N/A 82 63 51 N2 N/A  
PUHO CS* N/A 78 67 69 E2 N/A  
PTA KEAMUKU* N/A 70 55 60 NE14G22 N/A  
WAIKOLOA* N/A N/A N/A N/A E18G30 N/A  

 
 
HIZ027>028-221900-  
BIG ISLAND OF HAWAII INTERIOR AND SUMMMITS-  
 
CITY SKY/WX TMP DP RH WIND PRES REMARKS
 
BRADSHAW FIELD MOSUNNY 59 47 64 SE6 30.32S  
MK VISITOR CEN N/A 54 34 47 W13 N/A  
MAUNA KEA* N/A 43 7 22 NE1 N/A  
MAUNA LOA* N/A N/A N/A N/A MISG N/A  
MAUNA LOA 1* NOT AVBL  
PTA KIPUKA* N/A 66 57 72 CALM N/A  
PTA RANGE 17* N/A 61 48 63 NW8 N/A  
PTA WEST* N/A 55 37 50 E9G17 N/A  
NENE CABIN* N/A 54 52 94 E3 N/A  
AHUMOA* N/A 63 53 70 W3 N/A  
PTA PORTABLE* NOT AVBL  
PUU MALI* N/A 57 46 67 E12G20 N/A  

 
 
HIC003-221900-  
NORTHWEST ISLANDS-  
 
CITY SKY/WX TMP DP RH WIND PRES REMARKS
 
MIDWAY ISLAND CLEAR 75 72 88 NE6 30.12S  
MIDWAY NOS* N/A 79 N/A N/A MISG 30.11S  
FRENCH FRIGATE NOT AVBL  

 
 
PHZ110>124-180-221900-  
BUOY REPORTS  
 
STATION/POSITION TIME TEMP WIND PRES WAVE SWELL
 
AIR SEA DIR/SP/G HT/PER HT/DIR  
(UTC) (F) (DEG/KT/KT) (MB) (FT/S) (FT/D)  
BUOY 51001 1820 79 82 80/ 10/ 14 1018.2  
BUOY 51101 1750 80 81 70/ 10/ 12 1018.5R 6/12 5/320  
BUOY 51100 NOT AVBL  
BUOY 51002 1820 81 81 70/ 17/ 21 1014.3  
BUOY 51003 1750 79 81 30/ 14/ 17 1014.8R 6/ 8 5/ 80  
BUOY 51004 1750 80 60/ 12/ 16 1014.7R 6/ 8 5/ 70  
WAIMEA BAY# 1802 79 N/A 4/12 2/310  
MOKAPU POINT# 1804 81 N/A 6/ 8 2/ 80  
LANAI# NOT AVBL  
BARBERS PT 2# NOT AVBL  
PAUWELA# 1809 80 N/A 6/12 3/330  
HILO# 1827 80 N/A 6/ 8 2/ 90  
KANEOHE BAY# NOT AVBL  
KANEOHE BAY 2# NOT AVBL  
HANALEI# 1752 81 N/A 6/12 3/310  
KAHULUI HARBOR 1806 78 80 10/ 9/ 12 1016.5  
HONOLULU HARBOR 1806 80 81 50/ 2/ 8 1017.2  
PEARL HARBOR# 1800 81 N/A 3/ 7 2/160  
KILO NALU NOT AVBL  
HILO HARBOR 1806 75 80 220/ 3/ 4 1016.6  
MOKUOLOE 1736 80 81 60/ 9/ 13 1016.7R  
NAWILIWILI 1806 79 84 50/ 10/ 14 1017.2  
WHOTS BUOY NOT AVBL  
BUOY 51028 NOT AVBL  

 
   
.....................KEY.....................................
 
 
SKY/WX - SKY CONDITIONS/PRESENT WEATHER  
TMP - TEMPERATURE IN FAHRENHEIT  
DWPT - DEWPOINT IN FAHRENHEIT  
RH - RELATIVE HUMIDITY IN PERCENT  
WIND - DIRECTION AND SPEED /MPH FOR ISLANDS...KTS FOR BUOYS/  
PRES - MEAN SEA LEVEL PRESSURE IN INCHES OF HG  
VSB - VISIBILITY IN MILES  
HX - HEAT INDEX  
WCI - WIND CHILL INDEX  
VRB - VARIABLE WIND DIRECTION  
N/A - NOT AVAILABLE  
 
 
CLICK HERE TO GO TO PREVIOUS BULLETINS.

The Nexlab HI Page Main Text Page